Home > Weather > Houston > Past weeks

Flag for USA Past Weather in Houston, Texas, USA — Yesterday and Last 2 Weeks

Now
94 °F

Scattered clouds.


Feels Like: 102 °F
Forecast: 78 / 93 °F
Wind: 5 mph from Southwest

Location: Houston Hobby Airport

Current Time: Jul 29, 2016 at 2:48:24 PM

Latest Report: Jul 29, 2016 at 1:53 PM


Visibility: 10 mi

Pressure: 30.01 "Hg

Humidity: 49%

Dew Point: 72 °F

Location of HoustonLocation

Past Weather in Houston — Graph

°F

Houston Temperature Yesterday

Maximum temperature yesterday: 90 °F (at 10:53 AM)
Minimum temperature yesterday: 78 °F (at 11:53 AM)
Average temperature yesterday: 83 °F

High & Low Weather Summary for the Past Weeks

 TemperatureHumidityPressure
High98 °F (Jul 22, 2:53 PM)97% (Jul 26, 2:53 PM)30.19 "Hg (Jul 26, 2:53 PM)
Low76 °F (Jul 25, 2:53 PM)33% (Jul 21, 3:53 PM)29.88 "Hg (Jul 26, 6:53 PM)
Average85 °F73%30.02 "Hg
* Reported Jul 14 12:53 PM — Jul 29 12:53 PM, Houston, Weather by CustomWeather, © 2016

Note: Actual official high and low records may vary slightly from our data, if they occured in-between our weather recording intervals... More about our weather records

Advertising

Houston Weather History for the Previous 24 Hours

Scroll right to see more
 ConditionsComfort  
Time TempWeatherWind HumidityBarometerVisibility
12:53 PM
Fri, Jul 29
93 °FScattered clouds.7 mph52%30.03 "Hg10 mi
11:53 AM89 °FScattered clouds.3 mph61%30.05 "Hg10 mi
10:53 AM89 °FScattered clouds.3 mph63%30.06 "Hg10 mi
9:53 AM86 °FScattered clouds.7 mph72%30.04 "Hg10 mi
8:53 AM83 °FScattered clouds.3 mph82%30.03 "Hg10 mi
7:53 AM81 °FScattered clouds.5 mph88%30.01 "Hg10 mi
6:53 AM78 °FPassing clouds.3 mph93%30.01 "Hg10 mi
5:53 AM78 °FPartly cloudy.No wind93%30.00 "Hg10 mi
4:53 AM78 °FPartly cloudy.No wind93%29.99 "Hg10 mi
3:53 AM79 °FPassing clouds.5 mph90%30.00 "Hg10 mi
2:53 AM78 °FPassing clouds.5 mph93%29.99 "Hg10 mi
1:53 AM79 °FPassing clouds.6 mph90%30.00 "Hg10 mi
12:53 AM80 °FPassing clouds.7 mph87%29.99 "Hg10 mi
11:53 PM
Thu, Jul 28
80 °FPassing clouds.5 mph87%30.00 "Hg10 mi
10:53 PM81 °FPassing clouds.No wind82%30.00 "Hg10 mi
9:53 PM82 °FPassing clouds.3 mph79%29.99 "Hg10 mi
8:53 PM83 °FBroken clouds.5 mph77%29.98 "Hg10 mi
7:53 PM86 °FBroken clouds.No wind67%29.97 "Hg10 mi
6:53 PM87 °FPartly sunny.No wind63%29.96 "Hg10 mi
5:53 PM86 °FPartly sunny.3 mph63%29.97 "Hg10 mi
4:53 PM85 °FPartly sunny.3 mph63%29.99 "Hg10 mi
3:53 PM85 °FPartly sunny.7 mph63%30.00 "Hg10 mi
2:53 PM83 °FBroken clouds.6 mph70%30.01 "Hg10 mi
Weather by CustomWeather, © 2016

See weather overviewHow to use our weather pages